Weather History for Osceola Municipal, IA

Change the Weather History Date:

Tuesday, March 19, 2013

  Actual Average (KLWD) Record (KLWD)
Temperature  
Mean Temperature 29 °F 42 °F  
Max Temperature 41 °F 52 °F 77 °F (2012)
Min Temperature 17 °F 31 °F 7 °F (1965)
Degree Days  
Heating Degree Days 36 23  
Month to date heating degree days 523  
Since 1 July heating degree days 5240  
Cooling Degree Days 0 0  
Month to date cooling degree days 0  
Year to date cooling degree days 0  
Moisture  
Dew Point 13 °F    
Average Humidity 56    
Maximum Humidity 82    
Minimum Humidity 31    
Precipitation  
Precipitation 0.00 in 0.07 in 2.29 in (1982)
Month to date precipitation 1.23  
Sea Level Pressure  
Sea Level Pressure 30.13 in    
Wind  
Wind Speed 10 mph (WNW)    
Max Wind Speed 16 mph    
Max Gust Speed 21 mph    
Visibility 10 miles    
Events      
T = Trace of Precipitation, MM = Missing Value Source: NWS Daily Summary

Daily Weather History Graph

Daily Weather History Graph

Search for Another Location

Airport:

Trip Planner

Search our weather history database for the weather conditions in past years. The results will help you decide how hot, cold, wet, or windy it might be!

Date:

Astronomy

Mar. 19, 2013 Rise Set
Actual Time 7:19 AM CDT 7:26 PM CDT
Civil Twilight 6:51 AM CDT 7:53 PM CDT
Nautical Twilight 6:19 AM CDT 8:25 PM CDT
Astronomical Twilight 5:47 AM CDT 8:58 PM CDT
Moon 12:07 PM CDT (3/19) 2:16 AM CDT (3/19)
Length of Visible Light 13h 01m
Length of Day
12h 06m
Waxing Crescent, 50% of the Moon is Illuminated
Mar 19
Waxing Crescent
Mar 19
First Quarter
Mar 27
Full
Apr 2
Last Quarter
Apr 10
New

Hourly Weather History & Observations

Time (CDT) Temp. Windchill Dew Point Humidity Pressure Visibility Wind Dir Wind Speed Gust Speed Precip Events Conditions
12:15 AM 23.0 °F 11.7 °F 15.6 °F 73% 30.00 in 10.0 mi WNW 11.5 mph - N/A   Clear
12:35 AM 22.8 °F 12.9 °F 15.8 °F 74% 30.01 in 10.0 mi West 9.2 mph - N/A   Clear
12:55 AM 22.1 °F 12.8 °F 15.6 °F 76% 30.00 in 10.0 mi West 8.1 mph - N/A   Clear
1:15 AM 22.6 °F 12.6 °F 15.4 °F 74% 30.01 in 10.0 mi West 9.2 mph - N/A   Clear
1:35 AM 22.6 °F 9.6 °F 14.0 °F 69% 30.01 in 10.0 mi WNW 15.0 mph - N/A   Clear
1:55 AM 21.9 °F 10.4 °F 14.7 °F 74% 30.01 in 10.0 mi West 11.5 mph - N/A   Clear
2:15 AM 22.1 °F 11.3 °F 13.1 °F 68% 30.02 in 10.0 mi WNW 10.4 mph - N/A   Clear
2:35 AM 22.1 °F 8.5 °F 11.3 °F 63% 30.03 in 10.0 mi WNW 16.1 mph 20.7 mph N/A   Clear
2:55 AM 21.6 °F 9.9 °F 11.5 °F 65% 30.04 in 10.0 mi WNW 11.5 mph - N/A   Clear
3:15 AM 21.0 °F 10.6 °F 12.4 °F 69% 30.04 in 10.0 mi WNW 9.2 mph - N/A   Clear
3:35 AM 20.7 °F 8.8 °F 12.2 °F 70% 30.04 in 10.0 mi WNW 11.5 mph - N/A   Clear
3:55 AM 20.7 °F 8.2 °F 12.2 °F 70% 30.04 in 10.0 mi WNW 12.7 mph 17.3 mph N/A   Clear
4:15 AM 20.5 °F 7.4 °F 11.3 °F 68% 30.04 in 10.0 mi WNW 13.8 mph - N/A   Clear
4:35 AM 20.3 °F 6.1 °F 10.8 °F 67% 30.04 in 10.0 mi WNW 16.1 mph 20.7 mph N/A   Clear
4:55 AM 19.9 °F 7.9 °F 10.4 °F 67% 30.04 in 10.0 mi WNW 11.5 mph - N/A   Clear
5:15 AM 19.6 °F 8.1 °F 10.8 °F 69% 30.05 in 10.0 mi WNW 10.4 mph - N/A   Clear
5:35 AM 19.0 °F 9.0 °F 11.3 °F 72% 30.06 in 10.0 mi WNW 8.1 mph - N/A   Clear
5:55 AM 18.1 °F 8.9 °F 11.3 °F 75% 30.06 in 10.0 mi WNW 6.9 mph - N/A   Clear
6:15 AM 17.6 °F 8.2 °F 11.3 °F 76% 30.06 in 10.0 mi WNW 6.9 mph - N/A   Clear
6:35 AM 18.5 °F 6.8 °F 10.8 °F 72% 30.07 in 10.0 mi NW 10.4 mph - N/A   Clear
6:55 AM 18.0 °F 6.9 °F 10.2 °F 72% 30.08 in 10.0 mi WNW 9.2 mph - N/A   Clear
7:15 AM 17.4 °F 8.0 °F 10.0 °F 73% 30.09 in 10.0 mi WNW 6.9 mph - N/A   Clear
7:35 AM 17.8 °F 6.6 °F 9.7 °F 71% 30.10 in 10.0 mi WNW 9.2 mph - N/A   Clear
7:55 AM 18.5 °F 8.4 °F 9.5 °F 68% 30.10 in 10.0 mi WNW 8.1 mph - N/A   Clear
8:15 AM 19.4 °F 7.9 °F 9.0 °F 64% 30.12 in 10.0 mi WNW 10.4 mph - N/A   Clear
8:35 AM 20.3 °F 9.0 °F 8.8 °F 61% 30.13 in 10.0 mi WNW 10.4 mph - N/A   Clear
8:55 AM 20.8 °F 8.4 °F 8.8 °F 60% 30.14 in 10.0 mi WNW 12.7 mph - N/A   Clear
9:15 AM 22.3 °F 9.7 °F 9.1 °F 57% 30.15 in 10.0 mi WNW 13.8 mph - N/A   Clear
9:35 AM 22.8 °F 10.9 °F 8.6 °F 55% 30.16 in 10.0 mi NW 12.7 mph - N/A   Clear
9:55 AM 23.7 °F 14.0 °F 9.3 °F 54% 30.16 in 10.0 mi WNW 9.2 mph - N/A   Clear
10:15 AM 24.6 °F 15.8 °F 9.9 °F 54% 30.16 in 10.0 mi NW 8.1 mph - N/A   Clear
10:35 AM 25.2 °F 15.7 °F 9.1 °F 51% 30.16 in 10.0 mi NW 9.2 mph - N/A   Clear
10:55 AM 26.2 °F 16.4 °F 10.2 °F 51% 30.18 in 10.0 mi West 10.4 mph - N/A   Clear
11:15 AM 27.0 °F 18.7 °F 9.9 °F 49% 30.19 in 10.0 mi WNW 8.1 mph - N/A   Clear
11:35 AM 29.1 °F 24.1 °F 10.6 °F 46% 30.19 in 10.0 mi WNW 4.6 mph - N/A   Scattered Clouds
11:55 AM 28.6 °F 21.5 °F 9.1 °F 44% 30.18 in 10.0 mi NW 6.9 mph - N/A   Scattered Clouds
12:15 PM 29.3 °F 21.5 °F 10.4 °F 45% 30.18 in 10.0 mi West 8.1 mph - N/A   Mostly Cloudy
12:35 PM 30.4 °F 23.6 °F 8.4 °F 40% 30.18 in 10.0 mi West 6.9 mph - N/A   Scattered Clouds
12:55 PM 31.1 °F 23.1 °F 9.1 °F 40% 30.18 in 10.0 mi West 9.2 mph - N/A   Scattered Clouds
1:15 PM 32.0 °F 24.8 °F 7.5 °F 36% 30.18 in 10.0 mi West 8.1 mph - N/A   Mostly Cloudy
1:35 PM 33.4 °F 27.3 °F 9.5 °F 37% 30.18 in 10.0 mi West 6.9 mph - N/A   Mostly Cloudy
1:55 PM 34.7 °F 28.8 °F 10.8 °F 37% 30.17 in 10.0 mi West 6.9 mph - N/A   Scattered Clouds
2:15 PM 35.4 °F 29.7 °F 8.4 °F 33% 30.17 in 10.0 mi WNW 6.9 mph - N/A   Clear
2:35 PM 36.7 °F 30.5 °F 12.2 °F 37% 30.18 in 10.0 mi SW 8.1 mph - N/A   Mostly Cloudy
2:55 PM 37.0 °F 29.8 °F 9.9 °F 33% 30.17 in 10.0 mi West 10.4 mph - N/A   Mostly Cloudy
3:15 PM 38.5 °F 32.1 °F 10.0 °F 31% 30.16 in 10.0 mi West 9.2 mph - N/A   Scattered Clouds
3:35 PM 39.0 °F 31.4 °F 11.7 °F 33% 30.16 in 10.0 mi WSW 12.7 mph - N/A   Mostly Cloudy
3:55 PM 39.4 °F 33.2 °F 12.6 °F 33% 30.16 in 10.0 mi West 9.2 mph 17.3 mph N/A   Overcast
4:15 PM 39.0 °F 34.0 °F 12.6 °F 34% 30.16 in 10.0 mi West 6.9 mph - N/A   Overcast
4:35 PM 39.6 °F 34.0 °F 12.2 °F 33% 30.15 in 10.0 mi West 8.1 mph - N/A   Scattered Clouds
4:55 PM 40.8 °F 34.5 °F 12.0 °F 31% 30.15 in 10.0 mi WSW 10.4 mph - N/A   Clear
5:15 PM 41.4 °F 34.3 °F 12.4 °F 31% 30.15 in 10.0 mi West 12.7 mph - N/A   Clear
5:35 PM 41.4 °F 34.7 °F 12.9 °F 31% 30.14 in 10.0 mi West 11.5 mph 17.3 mph N/A   Clear
5:55 PM 41.5 °F 34.2 °F 14.2 °F 33% 30.14 in 10.0 mi West 13.8 mph - N/A   Clear
6:15 PM 41.2 °F 34.5 °F 13.8 °F 33% 30.14 in 10.0 mi West 11.5 mph 18.4 mph N/A   Clear
6:35 PM 40.6 °F 33.8 °F 16.2 °F 37% 30.14 in 10.0 mi West 11.5 mph - N/A   Clear
6:55 PM 39.6 °F 33.5 °F 16.5 °F 39% 30.14 in 10.0 mi West 9.2 mph - N/A   Clear
7:15 PM 37.4 °F 32.8 °F 18.3 °F 46% 30.14 in 10.0 mi West 5.8 mph - N/A   Clear
7:35 PM 36.5 °F 32.7 °F 17.4 °F 46% 30.14 in 10.0 mi WSW 4.6 mph - N/A   Clear
7:55 PM 35.6 °F 31.7 °F 17.4 °F 48% 30.14 in 10.0 mi West 4.6 mph - N/A   Clear
8:15 PM 34.9 °F 29.9 °F 19.2 °F 53% 30.15 in 10.0 mi West 5.8 mph - N/A   Clear
8:35 PM 33.6 °F 26.2 °F 19.9 °F 57% 30.16 in 10.0 mi North 9.2 mph - N/A   Clear
8:55 PM 32.0 °F 24.2 °F 20.5 °F 63% 30.17 in 10.0 mi North 9.2 mph - N/A   Clear
9:15 PM 30.2 °F 23.4 °F 20.5 °F 67% 30.18 in 10.0 mi North 6.9 mph - N/A   Clear
9:35 PM 28.8 °F 21.7 °F 20.1 °F 70% 30.19 in 10.0 mi NNW 6.9 mph - N/A   Clear
9:55 PM 28.9 °F 19.8 °F 20.1 °F 70% 30.21 in 10.0 mi NNW 10.4 mph - N/A   Clear
10:15 PM 28.9 °F 19.8 °F 20.5 °F 71% 30.21 in 10.0 mi NNW 10.4 mph - N/A   Clear
10:35 PM 28.2 °F 20.2 °F 20.7 °F 73% 30.21 in 10.0 mi NNW 8.1 mph - N/A   Clear
10:55 PM 27.1 °F 18.9 °F 20.7 °F 77% 30.21 in 10.0 mi NNW 8.1 mph - N/A   Clear
11:15 PM 26.4 °F 19.8 °F 20.3 °F 78% 30.21 in 10.0 mi NW 5.8 mph - N/A   Clear
11:35 PM 25.7 °F 20.1 °F 20.3 °F 80% 30.22 in 10.0 mi WNW 4.6 mph - N/A   Clear
11:55 PM 24.6 °F 17.7 °F 19.9 °F 82% 30.22 in 10.0 mi WNW 5.8 mph - N/A   Clear